| time (UTC) | temp F | wind direction | speed knots | gust knots | rain 1hr in | rain 24hr in | rain mn in | humidity % | barometer mb |
| 20260502214550 | 55 | 256 | 0.0 | 0.0 | 0.00 | 0.00 | 0.00 | 89 | 1013.6 |
| 20260502213044 | 55 | 256 | 0.0 | 0.0 | 0.00 | 0.00 | 0.00 | 89 | 1013.7 |
| 20260502211537 | 56 | 256 | 0.0 | 0.0 | 0.00 | 0.00 | 0.00 | 87 | 1013.7 |
| 20260502210036 | 56 | 256 | 0.0 | 0.9 | 0.00 | 0.00 | 0.00 | 87 | 1013.7 |
| 20260502204539 | 57 | 256 | 0.0 | 0.0 | 0.00 | 0.00 | 0.00 | 85 | 1013.6 |
| 20260502203056 | 58 | 256 | 0.0 | 0.9 | 0.00 | 0.00 | 0.00 | 85 | 1013.9 |
| 20260502201535 | 58 | 256 | 0.0 | 0.9 | 0.00 | 0.00 | 0.00 | 85 | 1014.0 |
| 20260502200036 | 59 | 256 | 0.0 | 0.0 | 0.00 | 0.00 | 0.00 | 84 | 1014.1 |
| 20260502194531 | 59 | 256 | 0.0 | 0.0 | 0.00 | 0.00 | 0.00 | 84 | 1014.1 |
| 20260502193031 | 59 | 256 | 0.0 | 0.0 | 0.00 | 0.00 | 0.00 | 84 | 1014.0 |
| 20260502191537 | 60 | 256 | 0.0 | 1.7 | 0.00 | 0.00 | 0.00 | 83 | 1014.0 |
| 20260502190031 | 60 | 256 | 0.0 | 1.7 | 0.00 | 0.00 | 0.00 | 83 | 1014.2 |
| 20260502184529 | 60 | 269 | 2.6 | 5.2 | 0.00 | 0.00 | 0.00 | 82 | 1014.3 |
| 20260502183029 | 61 | 117 | 0.0 | 0.0 | 0.00 | 0.00 | 0.00 | 81 | 1014.0 |
| 20260502181527 | 61 | 117 | 0.0 | 0.9 | 0.00 | 0.00 | 0.00 | 80 | 1014.1 |
| 20260502163036 | 66 | 98 | 3.5 | 7.8 | 0.00 | 0.00 | 0.00 | 70 | 1014.2 |
| 20260502161526 | 68 | 63 | 2.6 | 7.0 | 0.00 | 0.00 | 0.00 | 66 | 1014.3 |
| 20260502151510 | 72 | 214 | 2.6 | 9.6 | 0.00 | 0.00 | 0.00 | 50 | 1014.9 |
| 20260502123110 | 70 | 258 | 3.5 | 10.4 | 0.00 | 0.00 | 0.00 | 58 | 1016.8 |
| 20260502121550 | 69 | 295 | 5.2 | 12.2 | 0.00 | 0.00 | 0.00 | 58 | 1017.2 |
| 20260502114544 | 70 | 221 | 5.2 | 16.5 | 0.00 | 0.00 | 0.00 | 55 | 1017.5 |
| 20260502113049 | 69 | 197 | 5.2 | 13.9 | 0.00 | 0.00 | 0.00 | 55 | 1017.5 |
| 20260502111545 | 70 | 247 | 6.1 | 12.2 | 0.00 | 0.00 | 0.00 | 56 | 1017.7 |
| 20260502110042 | 70 | 271 | 3.5 | 12.2 | 0.00 | 0.00 | 0.00 | 55 | 1017.8 |
| 20260502104536 | 69 | 216 | 3.5 | 12.2 | 0.00 | 0.00 | 0.00 | 56 | 1018.0 |
| 20260502103034 | 68 | 281 | 3.5 | 10.4 | 0.00 | 0.00 | 0.00 | 55 | 1018.2 |
| 20260502101531 | 68 | 244 | 1.7 | 12.2 | 0.00 | 0.00 | 0.00 | 55 | 1018.3 |
| 20260502091525 | 66 | 225 | 2.6 | 8.7 | 0.00 | 0.00 | 0.00 | 54 | 1018.8 |
| 20260502071504 | 59 | 263 | 0.9 | 5.2 | 0.00 | 0.00 | 0.00 | 61 | 1018.9 |
| 20260502070003 | 58 | 238 | 0.9 | 4.3 | 0.00 | 0.00 | 0.00 | 61 | 1019.0 |
| 20260502064501 | 58 | 259 | 1.7 | 6.1 | 0.00 | 0.00 | 0.00 | 59 | 1019.4 |
| 20260502063100 | 58 | 254 | 1.7 | 6.1 | 0.00 | 0.00 | 0.00 | 58 | 1019.3 |
| 20260502061558 | 58 | 251 | 2.6 | 6.1 | 0.00 | 0.00 | 0.00 | 56 | 1019.3 |
| 20260502060055 | 57 | 245 | 2.6 | 7.0 | 0.00 | 0.00 | 0.00 | 56 | 1019.5 |
| 20260502054553 | 56 | 253 | 2.6 | 10.4 | 0.00 | 0.00 | 0.00 | 54 | 1019.4 |
| 20260502053055 | 55 | 244 | 0.9 | 6.1 | 0.00 | 0.00 | 0.00 | 54 | 1019.3 |
| 20260502051559 | 53 | 199 | 0.0 | 2.6 | 0.00 | 0.00 | 0.00 | 53 | 1019.3 |
| 20260502050049 | 53 | 240 | 0.9 | 2.6 | 0.00 | 0.00 | 0.00 | 53 | 1019.2 |
| 20260502044548 | 53 | 242 | 0.0 | 1.7 | 0.00 | 0.00 | 0.00 | 51 | 1019.2 |
| 20260502043047 | 53 | 242 | 0.9 | 2.6 | 0.00 | 0.00 | 0.00 | 50 | 1019.3 |
| 20260502041545 | 53 | 205 | 0.0 | 2.6 | 0.00 | 0.00 | 0.00 | 50 | 1019.4 |
| 20260502040044 | 53 | 251 | 1.7 | 4.3 | 0.00 | 0.00 | 0.00 | 50 | 1019.6 |
| 20260502034543 | 52 | 241 | 0.0 | 0.9 | 0.00 | 0.00 | 0.00 | 51 | 1019.6 |
| 20260502033042 | 52 | 241 | 0.0 | 1.7 | 0.00 | 0.00 | 0.00 | 51 | 1019.7 |
| 20260502031541 | 52 | 241 | 0.9 | 1.7 | 0.00 | 0.00 | 0.00 | 51 | 1019.7 |
| 20260502030045 | 51 | 241 | 0.0 | 1.7 | 0.00 | 0.00 | 0.00 | 51 | 1019.8 |
| 20260502024537 | 52 | 241 | 0.0 | 1.7 | 0.00 | 0.00 | 0.00 | 51 | 1019.9 |
| 20260502023037 | 52 | 241 | 0.0 | 3.5 | 0.00 | 0.00 | 0.00 | 50 | 1020.0 |
| 20260502021536 | 53 | 280 | 0.0 | 2.6 | 0.00 | 0.00 | 0.00 | 49 | 1020.1 |
| 20260502020035 | 53 | 236 | 1.7 | 3.5 | 0.00 | 0.00 | 0.00 | 48 | 1020.1 |
| 20260502014536 | 53 | 245 | 0.9 | 3.5 | 0.00 | 0.00 | 0.00 | 48 | 1020.3 |
| 20260502013033 | 53 | 248 | 1.7 | 6.1 | 0.00 | 0.00 | 0.00 | 48 | 1020.3 |
| 20260502011532 | 53 | 265 | 0.9 | 3.5 | 0.00 | 0.00 | 0.00 | 48 | 1020.3 |
| 20260502010031 | 52 | 238 | 0.0 | 1.7 | 0.00 | 0.00 | 0.00 | 49 | 1020.5 |
| 20260502004529 | 52 | 238 | 0.9 | 2.6 | 0.00 | 0.00 | 0.00 | 50 | 1020.5 |
| 20260502003026 | 52 | 238 | 0.0 | 0.0 | 0.00 | 0.00 | 0.00 | 50 | 1020.6 |
| 20260502001524 | 53 | 238 | 0.0 | 1.7 | 0.00 | 0.00 | 0.00 | 49 | 1020.8 |
| 20260502000020 | 54 | 238 | 0.0 | 1.7 | 0.00 | 0.00 | 0.00 | 47 | 1021.0 |
| 20260501234516 | 54 | 189 | 0.9 | 2.6 | 0.00 | 0.00 | 0.00 | 46 | 1021.2 |
| 20260501233015 | 55 | 173 | 0.0 | 1.7 | 0.00 | 0.00 | 0.00 | 45 | 1021.3 |
| 20260501231515 | 55 | 173 | 0.0 | 1.7 | 0.00 | 0.00 | 0.00 | 45 | 1021.4 |
| 20260501230016 | 55 | 173 | 0.0 | 2.6 | 0.00 | 0.00 | 0.00 | 45 | 1021.5 |
| 20260501224511 | 55 | 182 | 0.0 | 2.6 | 0.00 | 0.00 | 0.00 | 46 | 1021.6 |
| 20260501223011 | 55 | 169 | 0.0 | 4.3 | 0.00 | 0.00 | 0.00 | 46 | 1021.6 |
| 20260501221512 | 55 | 209 | 0.0 | 0.9 | 0.00 | 0.00 | 0.00 | 46 | 1021.5 |
| 20260501220012 | 55 | 209 | 0.0 | 0.9 | 0.00 | 0.00 | 0.00 | 45 | 1021.6 |